Location: Newark
(54.3386°S, 169.8415°W)
Time: 16:57:13
(UTC+00:00)

Transit 2A Rocket - Pass Details

Date: 29 October 2019
Orbit: 594 x 909 km, 66.7° (Epoch: 14 November)

Event Time Altitude Azimuth Distance (km) Brightness Sun altitude
Rises 06:31:03 0° 246° (WSW) 3,448 12.3 -1.4°
Reaches altitude 10° 06:33:57 10° 233° (SW) 2,553 9.6 -1.8°
Maximum altitude 06:38:51 25° 178° (S) 1,741 7.2 -2.4°
Drops below altitude 10° 06:43:53 10° 123° (ESE) 2,625 7.5 -3.1°
Sets 06:46:55 0° 110° (ESE) 3,565 8.1 -3.4°
